| time (UTC) | temp C | wind direction | speed KPH | gust KPH | rain 1hr cm | rain 24hr cm | rain mn cm | humidity % | barometer mb |
| 20260504223030 | 21 | 60 | 4.8 | 11.3 | 0.00 | 0.00 | 0.00 | 33 | 1005.7 |
| 20260504221510 | 21 | 67 | 3.2 | 9.7 | 0.00 | 0.00 | 0.00 | 34 | 1005.7 |
| 20260504220028 | 21 | 103 | 6.4 | 25.7 | 0.00 | 0.00 | 0.00 | 32 | 1005.7 |
| 20260504214548 | 21 | 89 | 3.2 | 9.7 | 0.00 | 0.00 | 0.00 | 32 | 1005.7 |
| 20260504213107 | 21 | 72 | 1.6 | 8.0 | 0.00 | 0.00 | 0.00 | 33 | 1005.7 |
| 20260504211540 | 22 | 85 | 1.6 | 16.1 | 0.00 | 0.00 | 0.00 | 32 | 1005.7 |
| 20260504210035 | 22 | 84 | 3.2 | 8.0 | 0.00 | 0.00 | 0.00 | 30 | 1005.8 |
| 20260504204540 | 22 | 117 | 4.8 | 19.3 | 0.00 | 0.00 | 0.00 | 29 | 1005.7 |
| 20260504203034 | 22 | 55 | 4.8 | 25.7 | 0.00 | 0.00 | 0.00 | 31 | 1005.8 |
| 20260504201533 | 23 | 78 | 8.0 | 14.5 | 0.00 | 0.00 | 0.00 | 29 | 1005.6 |
| 20260504200033 | 23 | 65 | 4.8 | 16.1 | 0.00 | 0.00 | 0.00 | 29 | 1005.7 |
| 20260504194528 | 22 | 146 | 3.2 | 16.1 | 0.00 | 0.00 | 0.00 | 34 | 1005.8 |
| 20260504193027 | 22 | 131 | 6.4 | 20.9 | 0.00 | 0.00 | 0.00 | 29 | 1005.8 |
| 20260504191516 | 22 | 77 | 6.4 | 17.7 | 0.00 | 0.00 | 0.00 | 28 | 1005.8 |
| 20260504190015 | 23 | 94 | 4.8 | 20.9 | 0.00 | 0.00 | 0.00 | 28 | 1005.9 |
| 20260504184512 | 23 | 47 | 4.8 | 17.7 | 0.00 | 0.00 | 0.00 | 28 | 1006.1 |
| 20260504183009 | 22 | 101 | 9.7 | 29.0 | 0.00 | 0.00 | 0.00 | 29 | 1006.3 |
| 20260504181507 | 22 | 86 | 6.4 | 22.5 | 0.00 | 0.00 | 0.00 | 30 | 1006.5 |
| 20260504180141 | 22 | 101 | 4.8 | 20.9 | 0.00 | 0.00 | 0.00 | 29 | 1006.4 |
| 20260504174502 | 21 | 360 | 8.0 | 17.7 | 0.00 | 0.00 | 0.00 | 30 | 1006.5 |
| 20260504173058 | 21 | 65 | 6.4 | 20.9 | 0.00 | 0.00 | 0.00 | 31 | 1006.7 |
| 20260504171549 | 21 | 98 | 4.8 | 22.5 | 0.00 | 0.00 | 0.00 | 33 | 1006.9 |
| 20260504140103 | 16 | 5 | 3.2 | 14.5 | 0.00 | 0.00 | 0.00 | 46 | 1008.8 |
| 20260504120109 | 11 | 56 | 1.6 | 8.0 | 0.00 | 0.10 | 0.00 | 56 | 1010.0 |
| 20260504081505 | 5 | 64 | 0.0 | 0.0 | 0.00 | 0.10 | 0.00 | 75 | 1010.4 |
| 20260504044541 | 0 | 64 | 0.0 | 0.0 | 0.00 | 0.10 | 0.00 | 88 | 1010.5 |
| 20260504043038 | 0 | 64 | 0.0 | 0.0 | 0.00 | 0.10 | 0.00 | 87 | 1010.4 |
| 20260504041525 | 0 | 64 | 0.0 | 0.0 | 0.00 | 0.10 | 0.00 | 87 | 1010.4 |
| 20260504040025 | 0 | 65 | 0.0 | 0.0 | 0.00 | 0.10 | 0.00 | 86 | 1010.3 |
| 20260504034520 | 1 | 64 | 0.0 | 0.0 | 0.00 | 0.10 | 0.00 | 85 | 1010.1 |
| 20260504033018 | 1 | 64 | 0.0 | 0.0 | 0.00 | 0.10 | 0.00 | 84 | 1010.0 |
| 20260504031518 | 1 | 64 | 0.0 | 0.0 | 0.00 | 0.10 | 0.00 | 83 | 1010.1 |
| 20260504030014 | 1 | 64 | 0.0 | 0.0 | 0.00 | 0.10 | 0.00 | 82 | 1010.2 |
| 20260504024510 | 2 | 64 | 0.0 | 0.0 | 0.00 | 0.10 | 0.00 | 80 | 1010.0 |
| 20260504023050 | 2 | 64 | 0.0 | 0.0 | 0.00 | 0.10 | 0.00 | 78 | 1010.0 |
| 20260504021547 | 2 | 64 | 0.0 | 0.0 | 0.00 | 0.10 | 0.00 | 76 | 1010.0 |
| 20260504020034 | 3 | 64 | 0.0 | 0.0 | 0.00 | 0.10 | 0.00 | 73 | 1009.8 |
| 20260504014531 | 3 | 64 | 0.0 | 0.0 | 0.00 | 0.10 | 0.00 | 71 | 1009.7 |
| 20260504013011 | 4 | 65 | 0.0 | 0.0 | 0.00 | 0.10 | 0.00 | 69 | 1009.6 |
| 20260504011506 | 5 | 64 | 0.0 | 0.0 | 0.00 | 0.10 | 0.00 | 66 | 1009.4 |
| 20260504010001 | 5 | 64 | 0.0 | 0.0 | 0.00 | 0.10 | 0.00 | 65 | 1009.4 |
| 20260504004627 | 6 | 64 | 0.0 | 0.0 | 0.00 | 0.10 | 0.00 | 62 | 1009.2 |
| 20260504003054 | 6 | 65 | 0.0 | 0.0 | 0.00 | 0.10 | 0.00 | 56 | 1009.0 |
| 20260504001551 | 7 | 64 | 0.0 | 0.0 | 0.00 | 0.10 | 0.00 | 53 | 1008.7 |
| 20260504000048 | 8 | 67 | 0.0 | 3.2 | 0.00 | 0.10 | 0.00 | 51 | 1008.6 |
| 20260503234540 | 9 | 360 | 0.0 | 4.8 | 0.00 | 0.10 | 0.00 | 49 | 1008.5 |
| 20260503233023 | 9 | 360 | 3.2 | 6.4 | 0.00 | 0.10 | 0.00 | 46 | 1008.3 |
| 20260503231522 | 10 | 360 | 0.0 | 4.8 | 0.00 | 0.10 | 0.00 | 46 | 1008.1 |
| 20260503230018 | 10 | 360 | 0.0 | 8.0 | 0.00 | 0.10 | 0.00 | 45 | 1008.0 |
| 20260503224516 | 10 | 360 | 3.2 | 9.7 | 0.00 | 0.10 | 0.00 | 44 | 1007.9 |